     2.10           OBSERVATION DATA    G (GPS)             RINEX VERSION / TYPE
teqc 2006Apr13 CORS-ADM Account 20060627 13:04:02UTC        PGM / RUN BY / DATE
Solaris 5.9|UltraSparc IIi|cc -xarch=v9 SC5.5|=+-|*Sparc    COMMENT
teqc 2006Apr13 CORS/NGS/NOAA 20060627 13:04:01UTC           COMMENT
BIT 2 OF LLI FLAGS DATA COLLECTED UNDER A/S CONDITION       COMMENT
cnmr                                                        MARKER NAME
50512M001                                                   MARKER NUMBER
Peter Paul Camacho Commonwealth of the Northern Mariana Isl OBSERVER / AGENCY
0220233361 TRIMBLE 4700 7.29                                REC # / TYPE / VERS
0220238086 TRM33429.20+GP UNAV                              ANT # / TYPE
 -5087756.9960  3465027.2461  1664652.3620                  APPROX POSITION XYZ
        0.0000        0.0000        0.0000                  ANTENNA: DELTA H/E/N
     1     1                                                WAVELENGTH FACT L1/2
     7    C1    L1    L2    P1    P2    D1    D2            # / TYPES OF OBSERV
    30.0000                                                 INTERVAL
SNR is mapped to RINEX snr flag value [0-9]                 COMMENT
L1 & L2: min(max(int(snr_dBHz/6), 0), 9)                    COMMENT
Forced Modulo Decimation to 30 seconds                      COMMENT
  2006     6    27    12     0    0.0000000     GPS         TIME OF FIRST OBS
                                                            END OF HEADER
 06  6 27 12  0  0.0000000  0  7G 7G 1G15G16G21G19G23
  21791648.0064  -18091899.49347 -13957635.19746                  21791643.8194
     -1840.0294
  22537938.5394  -17018586.33448 -13254346.71046                  22537935.1454
     -2353.2424
  21713448.0154  -19178193.79848 -14940806.09146                  21713443.3904
       177.8714
  22125312.9134  -13362436.97948 -13323096.37546                  22125307.8694
       736.1574
  23340749.2634  -11589709.23547  -9025877.34345                  23340744.0044
     -1260.9374
  22368671.1154   -9455604.78047  -8399987.28146                  22368664.9064
      2043.8094
  23301058.6414   -7917054.68347  -6163465.16145                  23301051.8194
       929.1464
 06  6 27 12  0 30.0000000  0  7G 7G 1G15G16G21G19G23
  21802160.4184  -18036653.85248 -13914586.64546                  21802156.1964
     -1843.0134
  22551384.2294  -16947928.81047 -13199288.89146                  22551380.7364
     -2357.2024
  21712480.2484  -19183279.68748 -14944769.12246                  21712475.8514
       161.1914
  22121106.7294  -13384545.73148 -13340323.97246                  22121100.8614
       737.6564
  23347987.0734  -11551671.41547  -8996237.47145                  23347982.7514
     -1274.9024
  22357039.5604   -9516727.75547  -8447615.56646                  22357033.5124
      2031.0454
  23295800.7514   -7944687.99847  -6184997.59545                  23295793.0044
       913.1404
 06  6 27 12  1  0.0000000  0  7G 7G 1G15G16G21G19G23
  21812690.2784  -17981320.73748 -13871469.95947                  21812686.1324
     -1846.0454
  22564852.6664  -16877151.52447 -13144137.74445                  22564848.7084
     -2361.3094
  21711607.3174  -19187866.58848 -14948343.32546                  21711602.6904
       144.3414
  22116889.4024  -13406702.10048 -13357588.67346                  22116884.7774
       739.1554
  23355305.5604  -11513216.91047  -8966272.92845                  23355300.2174
     -1288.8434
  22345480.9154   -9577469.08047  -8494946.48146                  22345475.1104
      2018.1984
  23290633.8384   -7971839.99147  -6206155.01245                  23290626.5734
       896.9484
 06  6 27 12  1 30.0000000  0  7G 7G 1G15G16G21G19G23
  21823236.7484  -17925900.24448 -13828285.17247                  21823232.5924
     -1849.0234
  22578342.8644  -16806255.42247 -13088894.01545                  22578339.4594
     -2365.3324
  21710830.3094  -19191951.69148 -14951526.52246                  21710825.7494
       127.6124
  22112665.4234  -13428903.90048 -13374888.77046                  22112659.7394
       740.6544
  23362702.3554  -11474344.43947  -8935982.68545                  23362697.7494
     -1302.9304
  22333995.5664   -9637826.81847  -8541978.48446                  22333989.4654
      2005.2204
  23285558.5354   -7998509.02947  -6226936.07445                  23285550.8854
       880.7424
 06  6 27 12  2  0.0000000  0  7G 7G 1G15G16G21G19G23
  21833798.8324  -17870394.90247 -13785034.25547                  21833794.6244
     -1851.2944
  22591856.5954  -16735244.18547 -13033560.56846                  22591852.5604
     -2368.6624
  21710148.2014  -19195535.06547 -14954318.75246                  21710144.0034
       111.2994
  22108431.5694  -13451151.09448 -13392224.22746                  22108425.6784
       742.5294
  23370179.3254  -11435055.25147  -8905367.73245                  23370173.5784
     -1316.2844
  22322582.2964   -9697801.49947  -8588711.97146                  22322576.6754
      1992.9744
  23280575.8464   -8024696.24147  -6247341.68345                  23280568.5634
       865.0984
 06  6 27 12  2 30.0000000  0  7G 7G 1G15G16G21G19G23
  21844375.7434  -17814813.44048 -13741724.03247                  21844371.0674
     -1854.0384
  22605389.6014  -16664127.51047 -12978144.96546                  22605385.7714
     -2372.4124
  21709560.3184  -19198622.46848 -14956724.53146                  21709556.3854
        94.4874
  22104188.1074  -13473449.79948 -13409599.83446                  22104182.9404
       744.0584
  23377733.6364  -11395357.41147  -8874434.34745                  23377728.5954
     -1330.1614
  22311241.5564   -9757399.11647  -8635151.68346                  22311235.5944
      1980.2494
  23275681.8974   -8050408.93347  -6267377.52845                  23275674.4924
       849.1064
 06  6 27 12  3  0.0000000  0  7G 7G 1G15G16G21G19G23
  21854967.1504  -17759155.03348 -13698353.84447                  21854963.3024
     -1856.6464
  22618942.6794  -16592905.54547 -12922647.33846                  22618939.0274
     -2375.8254
  21709067.6904  -19201210.40348 -14958741.09646                  21709063.1414
        77.8324
  22099935.4334  -13495796.37048 -13427012.75946                  22099930.0524
       745.6404
  23385365.7054  -11355248.81447  -8843180.89845                  23385360.7004
     -1343.8724
  22299972.5924   -9816616.87447  -8681295.37346                  22299966.8774
      1967.5004
  23270880.2444   -8075645.12947  -6287042.11245                  23270872.1034
       833.1204
 06  6 27 12  3 30.0000000  0  7G 7G 1G15G16G21G19G23
  21865573.5304  -17703418.35748 -13654922.66546                  21865569.4094
     -1859.2634
  22632515.7814  -16521577.98747 -12867067.40946                  22632512.3244
     -2379.3754
  21708671.3184  -19203295.10648 -14960365.53846                  21708666.9954
        61.0694
  22095674.8844  -13518187.27448 -13444460.20646                  22095669.5474
       747.1044
  23393076.5644  -11314727.13647  -8811605.59645                  23393072.4624
     -1357.6424
  22288777.0014   -9875451.40747  -8727140.44846                  22288771.2984
      1954.7224
  23266169.4504   -8100401.50347  -6306332.77745                  23266162.1444
       817.2514
 06  6 27 12  4  0.0000000  0  7G 7G 1G15G16G21G19G23
  21876193.6854  -17647607.25348 -13611433.50647                  21876189.5924
     -1861.5774
  22646108.2994  -16450149.67547 -12811408.97745                  22646104.3704
     -2382.4514
  21708369.7804  -19204877.73048 -14961598.75746                  21708365.5074
        44.4634
  22091405.4634  -13540623.41248 -13461942.90746                  22091400.0504
       748.6474
  23400866.0504  -11273795.13647  -8779710.56745                  23400862.5124
     -1371.1334
  22277653.3744   -9933904.24147  -8772688.11446                  22277647.6014
      1942.1834
  23261548.6704   -8124680.93146  -6325251.82345                  23261541.3024
       801.3434
 06  6 27 12  4 30.0000000  0  7G 7G 1G15G16G21G19G23
  21886827.4884  -17591728.12648 -13567891.33346                  21886823.3644
     -1863.9894
  22659718.5054  -16378627.89248 -12755677.68945                  22659714.3574
     -2385.7134
  21708163.3814  -19205961.95248 -14962443.60846                  21708159.2484
        27.5984
  22087126.7034  -13563108.63048 -13479463.85846                  22087121.5094
       750.1514
  23408731.5094  -11232458.28547  -8747500.03445                  23408726.3064
     -1384.8004
  22266602.3544   -9991979.48547  -8817941.54746                  22266596.6204
      1929.4094
  23257018.3884   -8148487.85746  -6343802.68145                  23257011.9374
       785.4884
 06  6 27 12  5  0.0000000  0  7G 7G 1G15G16G21G19G23
  21897475.1974  -17535773.55048 -13524290.36146                  21897470.8824
     -1866.3534
  22673347.8794  -16307006.59747 -12699868.83646                  22673343.8964
     -2389.0484
  21708053.5984  -19206538.36548 -14962892.75346                  21708050.2174
        10.7234
  22082840.4114  -13585633.19748 -13497015.45546                  22082834.6614
       751.4504
  23416677.1164  -11190708.39847  -8714967.65045                  23416672.3064
     -1398.6284
  22255624.8324  -10049668.12948  -8862893.72246                  22255618.6294
      1916.4894
  23252580.0154   -8171814.08447  -6361978.95545                  23252571.6494
       769.4434
 06  6 27 12  5 30.0000000  0  7G 7G 1G15G16G21G19G23
  21908136.1234  -17479749.31348 -13480635.11146                  21908132.0694
     -1868.3984
  22686994.1664  -16235292.15947 -12643987.46145                  22686989.8604
     -2391.7244
  21708040.3184  -19206609.67648 -14962948.32146                  21708036.3884
        -5.8454
  22078545.8804  -13608200.03048 -13514599.99246                  22078540.1974
       753.1694
  23424699.2314  -11148550.02547  -8682116.94745                  23424692.1964
     -1411.8314
  22244719.8434  -10106973.22148  -8907547.03946                  22244713.9304
      1903.9844
  23248232.9604   -8194663.75347  -6379783.86945                  23248226.3204
       753.8824
 06  6 27 12  6  0.0000000  0  7G 7G 1G15G16G21G19G23
  21918810.4384  -17423655.90448 -13436925.96746                  21918806.2264
     -1870.7624
  22700658.1704  -16163486.32547 -12588034.85246                  22700654.4334
     -2394.9954
  21708122.8794  -19206174.27748 -14962609.04346                  21708119.2974
       -22.8814
  22074243.6854  -13630807.27848 -13532216.01946                  22074238.3364
       754.2774
  23432798.9654  -11105982.95447  -8648947.78745                  23432795.4034
     -1425.6054
  22233888.3614  -10163893.62147  -8951900.58146                  22233882.0994
      1891.0354
  23243974.5394   -8217036.15347  -6397216.92745                  23243966.1024
       737.8764
 06  6 27 12  6 30.0000000  0  7G 7G 1G15G16G21G19G23
  21929497.1644  -17367497.09448 -13393165.85446                  21929493.0514
     -1873.1794
  22714338.8864  -16091594.10947 -12532014.94645                  22714335.2254
     -2397.9254
  21708302.5144  -19205233.53748 -14961875.99646                  21708298.3974
       -39.8544
  22069933.8664  -13653456.06447 -13549864.41946                  22069928.9444
       755.5764
  23440977.1144  -11063010.12147  -8615462.46845                  23440971.8974
     -1439.2284
  22223129.7014  -10220431.28648  -8995955.90646                  22223124.3244
      1878.1104
  23239806.6264   -8238934.00046  -6414280.18345                  23239799.3634
       721.9634
 06  6 27 12  7  0.0000000  0  7G 7G 1G15G16G21G19G23
  21940195.9944  -17311273.23148 -13349355.05146                  21940191.8004
     -1875.1954
  22728035.8924  -16019616.66647 -12475928.61845                  22728031.9774
     -2400.6014
  21708578.1944  -19203785.00148 -14960747.26046                  21708573.5024
       -56.7144
  22065616.2814  -13676143.98747 -13567543.31746                  22065610.9964
       756.8994
  23449232.1084  -11019630.79847  -8581660.42245                  23449228.3254
     -1452.6814
  22212444.3294  -10276584.13948  -9039711.36546                  22212438.0724
      1865.3664
  23235730.4764   -8260356.19746  -6430972.77345                  23235722.4684
       706.2114
 06  6 27 12  7 30.0000000  0  7G 7G 1G15G16G21G19G23
  21950905.5014  -17254992.36248 -13305499.83246                  21950901.7124
     -1877.0754
  22741747.0934  -15947563.10347 -12419782.96945                  22741742.8304
     -2403.2284
  21708949.1304  -19201834.38848 -14959227.29346                  21708944.9824
       -73.5944
  22061290.6444  -13698876.49947 -13585256.97446                  22061285.2024
       758.2474
  23457562.3554  -10975852.38447  -8547547.36545                  23457556.7834
     -1466.0604
  22201830.6564  -10332358.53448  -9083171.92146                  22201824.6174
      1852.6514
  23231742.7054   -8281309.81446  -6447300.28345                  23231735.5984
       690.4354
 06  6 27 12  8  0.0000000  0  7G 7G 1G15G16G21G19G23
  21961626.6054  -17198653.29748 -13261599.26446                  21961622.8394
     -1878.8624
  22755473.3524  -15875433.46647 -12363578.03245                  22755469.1934
     -2405.5474
  21709416.4174  -19199378.29048 -14957313.44046                  21709412.7614
       -90.3034
  22056957.0304  -13721649.94347 -13603002.50546                  22056951.5044
       759.8584
  23465969.7384  -10931672.87847  -8513121.76645                  23465963.6954
     -1479.3124
  22191289.9164  -10387751.19048  -9126335.03246                  22191282.9974
      1840.0884
  23227845.1704   -8301792.40847  -6463260.69844                  23227838.0974
       674.8884
 06  6 27 12  8 30.0000000  0  7G 7G 1G15G16G21G19G23
  21972357.8634  -17142261.81548 -13217657.85646                  21972354.0664
     -1880.4594
  22769212.0154  -15803234.43247 -12307319.05845                  22769208.6004
     -2407.5884
  21709979.3984  -19196420.11848 -14955008.36346                  21709975.0734
      -106.8414
  22052615.1424  -13744467.28748 -13620782.25246                  22052609.2234
       761.4794
  23474451.7664  -10887097.40147  -8478387.62545                  23474445.9674
     -1492.3294
  22180821.0664  -10442765.85548  -9169203.59346                  22180814.3424
      1827.7104
  23224035.9684   -8321808.57547  -6478857.73845                  23224028.9794
       659.5854
 06  6 27 12  9  0.0000000  0  7G 7G 1G15G16G21G19G23
  21983098.3264  -17085818.90948 -13173676.38046                  21983094.1074
     -1882.5984
  22782964.1234  -15730967.98847 -12251007.52645                  22782959.9164
     -2410.4394
  21710638.0644  -19192958.76948 -14952311.21546                  21710634.0634
      -124.0724
  22048265.4044  -13767327.08247 -13638595.06046                  22048259.7264
       762.3444
  23483009.5044  -10842126.08647  -8443345.03544                  23483004.1564
     -1506.0454
  22170424.0074  -10497401.84447  -9211777.08946                  22170417.6634
      1814.5604
  23220315.5884   -8341358.02447  -6494091.06645                  23220309.4074
       643.5944
 06  6 27 12  9 30.0000000  0  7G 7G 1G15G16G21G19G23
  21993849.2194  -17029323.15848 -13129653.71846                  21993845.1314
     -1884.0534
  22796729.2614  -15658633.85348 -12194643.24345                  22796724.4564
     -2412.2714
  21711392.4764  -19188990.41948 -14949218.98246                  21711389.1144
      -140.7324
  22043907.7004  -13790225.34447 -13656437.84046                  22043902.0594
       763.9114
  23491643.0764  -10796756.51747  -8407992.16845                  23491638.1744
     -1519.0234
  22160099.7624  -10551655.76447  -9254052.85146                  22160093.5394
      1802.0464
  23216685.7824   -8360438.48347  -6508958.93244                  23216677.9164
       628.1204
 06  6 27 12 10  0.0000000  0  7G 7G 1G15G16G21G19G23
  22004609.8454  -16972775.57948 -13085590.68146                  22004605.8514
     -1885.6054
  22810505.8984  -15586234.03747 -12138227.80145                  22810501.8194
     -2414.1944
  21712244.6584  -19184513.74848 -14945730.67946                  21712241.3524
      -157.5104
  22039543.4064  -13813160.37148 -13674309.27346                  22039537.7344
       765.2784
  23500351.5734  -10750989.05347  -8372329.21845                  23500346.8124
     -1532.0564
  22149848.2564  -10605526.74047  -9296030.25946                  22149841.7524
      1789.5264
  23213143.0144   -8379050.23446  -6523461.62544                  23213136.3324
       612.7394
 06  6 27 12 10 30.0000000  0  7G 7G 1G15G16G21G19G23
  22015379.6694  -16916180.39448 -13041490.52546                  22015375.7164
     -1887.3974
  22824294.3664  -15513773.95447 -12081765.37745                  22824289.9004
     -2416.3234
  21713193.4204  -19179530.95547 -14941847.98046                  21713189.2704
      -174.5464
  22035171.5474  -13836133.73148 -13692210.58346                  22035165.8114
       766.3624
  23509136.3624  -10704827.29247  -8336359.02944                  23509131.7234
     -1545.3914
  22139669.6684  -10659017.46847  -9337711.33146                  22139663.0294
      1776.6414
  23209690.2984   -8397196.17146  -6537601.29445                  23209683.9434
       597.0654
 06  6 27 12 11  0.0000000  0  7G 7G 1G15G16G21G19G23
  22026157.9984  -16859539.56748 -12997354.82746                  22026154.3224
     -1888.8674
  22838094.0874  -15441256.56947 -12025258.29045                  22838089.2794
     -2418.3254
  21714238.6264  -19174041.96347 -14937570.83646                  21714234.1434
      -191.5334
  22030792.4454  -13859144.78947 -13710141.26646                  22030786.9844
       767.5884
  23517995.9584  -10658272.33447  -8300082.43844                  23517990.5994
     -1558.5304
  22129562.9634  -10712127.93047  -9379096.09446                  22129557.1904
      1763.8674
  23206325.2564   -8414877.07347  -6551378.62145                  23206319.2034
       581.3774
 06  6 27 12 11 30.0000000  0  7G 7G 1G15G16G21G19G23
  22036945.2714  -16802852.36248 -12953182.98046                  22036941.3644
     -1890.2154
  22851904.8194  -15368682.41547 -11968707.01045                  22851900.3394
     -2419.9024
  21715380.0614  -19168043.94648 -14932897.03946                  21715375.1814
      -208.3204
  22026407.0994  -13882190.41748 -13728098.88046                  22026401.9304
       768.8574
  23526929.5824  -10611323.21547  -8263498.71344                  23526925.1204
     -1571.3724
  22119529.2064  -10764855.55647  -9420182.54346                  22119522.6864
      1751.3144
  23203050.1434   -8432091.33546  -6564792.31544                  23203043.5094
       566.1874
 06  6 27 12 12  0.0000000  0  7G 7G 1G15G16G21G19G23
  22047740.6674  -16746123.28948 -12908978.51046                  22047736.9624
     -1891.7484
  22865724.8634  -15296056.61447 -11912115.45245                  22865720.4744
     -2421.8604
  21716616.4634  -19161538.85148 -14927828.13646                  21716612.7364
      -225.4444
  22022015.4054  -13905272.28847 -13746084.75946                  22022009.7324
       769.8244
  23535938.3614  -10563983.80947  -8226610.87944                  23535933.9764
     -1584.6344
  22109568.1594  -10817202.87747  -9460972.68246                  22109561.4044
      1738.4384
  23199861.8784   -8448842.87946  -6577845.47445                  23199856.0794
       550.5424
 06  6 27 12 12 30.0000000  0  7G 7G 1G15G16G21G19G23
  22058542.7124  -16689358.26848 -12864746.02446                  22058538.9274
     -1892.5784
  22879553.3344  -15223386.49347 -11855489.38745                  22879549.4574
     -2422.9494
  21717950.2454  -19154530.75347 -14922367.28346                  21717946.6464
      -241.8164
  22017615.4504  -13928393.41648 -13764101.21146                  22017609.7364
       771.4994
  23545019.9344  -10516259.46247  -8189423.08544                  23545015.2464
     -1597.0904
  22099678.0854  -10869174.20047  -9501469.80546                  22099671.2274
      1726.2554
  23196761.5064   -8465136.47246  -6590541.78545                  23196755.9064
       535.6694
 06  6 27 12 13  0.0000000  0  7G 7G 1G15G16G21G19G23
  22069351.5814  -16632555.52948 -12820484.15746                  22069347.7414
     -1894.0334
  22893390.4854  -15150671.47747 -11798828.33545                  22893386.7884
     -2424.5174
  21719381.2844  -19147015.93048 -14916511.58246                  21719376.5984
      -258.9064
  22013208.4484  -13951549.74247 -13782145.08746                  22013203.1934
       772.4664
  23554175.9974  -10468147.81147  -8151933.51344                  23554170.0314
     -1610.2154
  22089859.7564  -10920766.35147  -9541671.46446                  22089853.4794
      1713.3694
  23193748.5524   -8480969.86846  -6602879.48445                  23193741.8774
       520.0834
 06  6 27 12 13 30.0000000  0  7G 7G 1G15G16G21G19G23
  22080168.9154  -16575710.25548 -12776189.12746                  22080163.8044
     -1895.3814
  22907237.0844  -15077907.45547 -11742129.09945                  22907233.7084
     -2426.0944
  21720907.9664  -19138987.40648 -14910255.58146                  21720904.3524
      -275.9374
  22008797.1264  -13974734.00647 -13800210.75346                  22008790.8174
       773.4574
  23563405.7884  -10419643.13347  -8114137.60144                  23563400.2414
     -1623.1794
  22080116.0384  -10971972.71747  -9581572.54146                  22080109.4054
      1700.6594
  23190825.0234   -8496337.04446  -6614853.90845                  23190817.9514
       504.6684
 06  6 27 12 14  0.0000000  0  7G 7G 1G15G16G21G19G23
  22090993.8604  -16518824.16148 -12731862.29446                  22090988.6924
     -1896.4704
  22921092.5514  -15005097.41847 -11685394.03945                  22921088.6974
     -2427.3194
  21722534.3244  -19130445.06947 -14903599.22846                  21722529.4904
      -292.9394
  22004379.3314  -13997945.33348 -13818297.50746                  22004374.4764
       774.5364
  23572709.5744  -10370746.90047  -8076036.66544                  23572706.1484
     -1636.0504
  22070445.0894  -11022793.43548  -9621173.10146                  22070438.7934
      1687.9984
  23187988.2894   -8511239.12946  -6626465.88845                  23187981.8074
       489.4194
 06  6 27 12 14 30.0000000  0  7G 7G 1G15G16G21G19G23
  22101825.1564  -16461904.87648 -12687509.58746                  22101819.9184
     -1897.6024
  22934955.0294  -14932250.10147 -11628629.88645                  22934950.7584
     -2428.6044
  21724256.0604  -19121394.46748 -14896546.80346                  21724252.1924
      -309.9464
  21999956.9694  -14021188.07348 -13836408.73246                  21999951.9594
       775.4544
  23582087.3194  -10321466.13947  -8037636.08044                  23582083.6414
     -1648.8334
  22060846.3794  -11073234.45248  -9660477.79546                  22060840.0494
      1675.2644
  23185240.5734   -8525682.75547  -6637720.67945                  23185233.2034
       473.9314
 06  6 27 12 15  0.0000000  0  7G 7G 1G15G16G21G19G23
  22112663.4164  -16404952.11948 -12643130.80046                  22112659.6834
     -1898.9114
  22948824.1224  -14859366.37747 -11571837.37345                  22948819.7204
     -2430.0244
  21726075.7544  -19111833.53348 -14889096.72146                  21726071.8494
      -327.1924
  21995528.0874  -14044459.77048 -13854542.51546                  21995523.1754
       776.1774
  23591538.5234  -10271800.17947  -7998935.31444                  23591534.2804
     -1661.8604
  22051320.5554  -11123293.78448  -9699485.06146                  22051313.9324
      1662.3734
  23182579.5434   -8539667.05847  -6648617.51945                  23182572.7904
       458.5644
 06  6 27 12 15 30.0000000  0  7G 7G 1G15G16G21G19G23
  22123505.6284  -16347973.41148 -12598731.82446                  22123502.1254
     -1899.5074
  22962698.6244  -14786454.60347 -11515022.98845                  22962694.5514
     -2430.6794
  21727990.8624  -19101767.61248 -14881253.13746                  21727987.4054
      -343.7304
  21991093.4394  -14067765.15948 -13872702.55246                  21991087.9104
       777.5884
  23601062.2514  -10221755.99847  -7959939.85644                  23601056.9134
     -1674.1804
  22041866.3124  -11172977.30948  -9738199.48646                  22041859.3664
      1650.1124
  23180004.2274   -8553198.62346  -6659161.59545                  23179997.2314
       443.7844
 06  6 27 12 16  0.0000000  0  7G 7G 1G15G16G21G19G23
  22134353.4164  -16290969.71948 -12554313.37446                  22134350.5164
     -1900.6404
  22976577.3114  -14713517.02647 -11458188.51245                  22976574.5674
     -2431.6944
  21730002.6464  -19091196.17048 -14873015.65146                  21729998.2914
      -360.8454
  21986652.5224  -14091102.66248 -13890887.62946                  21986647.1954
       778.3794
  23610657.3104  -10171334.15947  -7920650.08844                  23610651.1444
     -1687.1094
  22032483.4824  -11222284.63248  -9776620.78546                  22032476.7164
      1637.2754
  23177515.1634   -8566278.00847  -6669353.32945                  23177508.5454
       428.3694
 06  6 27 12 16 30.0000000  0  7G 7G 1G15G16G21G19G23
  22145205.6494  -16233942.33048 -12509876.45246                  22145200.7524
     -1901.2454
  22990461.9304  -14640555.92347 -11401335.68145                  22990457.8944
     -2432.4564
  21732110.6404  -19080118.73948 -14864383.88646                  21732106.2834
      -377.6714
  21982205.6594  -14114470.78248 -13909096.55546                  21982200.3264
       779.4094
  23620323.7484  -10120535.62547  -7881066.82544                  23620319.2424
     -1699.5074
  22023172.2954  -11271215.49648  -9814748.73446                  22023165.6784
      1624.7464
  23175112.1044   -8578905.73247  -6679193.09445                  23175105.5444
       413.3504
 06  6 27 12 17  0.0000000  0  7G 7G 1G15G16G21G19G23
  22156062.1414  -16176890.46448 -12465420.44446                  22156057.7634
     -1901.9044
  23004350.7374  -14567571.66247 -11344464.79445                  23004346.5534
     -2432.9934
  21734315.3354  -19068532.69048 -14855355.78246                  21734311.2024
      -394.3904
  21977753.5214  -14137866.18348 -13927326.73346                  21977748.0294
       780.4984
  23630062.4164  -10069359.22547  -7841189.17844                  23630058.3154
     -1711.9784
  22013932.6264  -11319767.88148  -9852581.75646                  22013927.0584
      1612.2514
  23172795.2874   -8591080.56947  -6688679.96745                  23172788.7114
       398.5504
 06  6 27 12 17 30.0000000  0  7G 7G 1G15G16G21G19G23
  22166923.0304  -16119813.94348 -12420945.20846                  22166918.6144
     -1902.8964
  23018243.1594  -14494565.11147 -11287576.56545                  23018239.4704
     -2433.9064
  21736617.4994  -19056435.98548 -14845929.78946                  21736613.4074
      -411.7294
  21973297.0394  -14161285.90948 -13945575.87246                  21973291.5124
       781.0794
  23639872.4624  -10017804.47447  -7801016.64144                  23639866.1644
     -1724.8344
  22004766.0304  -11367939.87047  -9890118.37146                  22004759.4814
      1599.4044
  23170565.2484   -8602801.58447  -6697813.22745                  23170557.2084
       383.1454
 06  6 27 12 18  0.0000000  0  7G 7G 1G15G16G21G19G23
  22177788.0594  -16062718.63447 -12376455.35346                  22177784.5484
     -1903.2274
  23032138.3124  -14421543.30247 -11230676.44645                  23032135.2714
     -2434.0974
  21739015.5844  -19043832.82848 -14836109.13546                  21739011.6694
      -428.3984
  21968835.2484  -14184733.45048 -13963846.67046                  21968829.6714
       782.2414
  23649754.2154   -9965876.82746  -7760553.53744                  23649748.5094
     -1736.9534
  21995670.4474  -11415735.82048  -9927361.94546                  21995664.6034
      1587.1194
  23168420.4284   -8614074.42447  -6706597.25045                  23168413.6424
       368.5604
 06  6 27 12 18 30.0000000  0  7G 7G 1G15G16G21G19G23
  22188656.3534  -16005605.90947 -12331951.92346                  22188652.3224
     -1903.7504
  23046037.4454  -14348508.75547 -11173766.41145                  23046033.2664
     -2434.3994
  21741510.5574  -19030722.81048 -14825893.54146                  21741506.4424
      -445.1814
  21964368.1324  -14208207.61948 -13982138.24646                  21964362.6714
       783.1644
  23659706.6314   -9913577.23647  -7719800.65044                  23659701.7944
     -1749.1994
  21986646.9334  -11463155.81248  -9964312.60346                  21986640.0364
      1574.6094
  23166360.4334   -8624899.66746  -6715032.49745                  23166353.4534
       353.5994
 06  6 27 12 19  0.0000000  0  7G 7G 1G15G16G21G19G23
  22199527.5654  -15948476.75447 -12287435.69746                  22199523.6454
     -1904.3904
  23059936.9624  -14275463.47347 -11116848.04345                  23059933.4404
     -2434.7954
  21744101.4714  -19017105.33747 -14815282.51646                  21744097.8194
      -462.1974
  21959896.5144  -14231706.49248 -14000449.05846                  21959890.7994
       783.8334
  23669730.1384   -9860906.46247  -7678758.49244                  23669724.3314
     -1761.6604
  21977694.6964  -11510199.50047 -10000970.03846                  21977688.3054
      1561.9924
  23164385.1284   -8635277.65946  -6723119.24845                  23164377.7754
       338.7114
 06  6 27 12 19 30.0000000  0  7G 7G 1G15G16G21G19G23
  22210401.7084  -15891333.89048 -12242908.77646                  22210397.4674
     -1904.7564
  23073838.4974  -14202411.14447 -11059924.12945                  23073835.1924
     -2435.0244
  21746789.3714  -19002981.47947 -14804276.92546                  21746785.6394
      -478.9454
  21955419.6454  -14255229.98548 -14018779.06346                  21955414.5024
       784.7564
  23679823.1194   -9807866.98747  -7637429.01644                  23679817.5094
     -1773.8824
  21968814.1304  -11556868.06447 -10037335.14946                  21968807.6394
      1549.5904
  23162494.5764   -8645210.62647  -6730859.20645                  23162487.6654
       323.8824
 06  6 27 12 20  0.0000000  0  7G 7G 1G15G16G21G19G23
  22221278.2734  -15834174.28548 -12198368.83046                  22221274.6914
     -1905.4444
  23087741.7184  -14129350.12747 -11002993.46345                  23087737.1654
     -2435.3764
  21749574.6064  -18988346.87847 -14792873.35046                  21749570.0644
      -496.2704
  21950940.6054  -14278772.64148 -14037123.99846                  21950934.7084
       785.2154
  23689987.1204   -9754455.64147  -7595809.78944                  23689980.8854
     -1786.4014
  21960005.1534  -11603157.34747 -10073404.72346                  21959998.5554
      1536.7974
  23160689.5414   -8654695.41647  -6738249.94845                  23160683.2854
       308.8674
 06  6 27 12 20 30.0000000  0  7G 7G 1G15G16G21G19G23
  22232158.2344  -15777000.54548 -12153817.86146                  22232154.6944
     -1906.3384
  23101645.6124  -14056283.71247 -10946058.60445                  23101641.7044
     -2436.0064
  21752455.8914  -18973202.40948 -14781072.47146                  21752452.4104
      -513.6134
  21946456.5734  -14302334.29148 -14055483.72446                  21946450.9614
       785.3664
  23700220.5274   -9700674.61547  -7553902.46844                  23700215.4464
     -1799.1704
  21951269.2124  -11649068.45848 -10109179.62346                  21951262.8234
      1523.7604
  23158970.1404   -8663734.17447  -6745293.14945                  23158963.4084
       293.5454
 06  6 27 12 21  0.0000000  0  7G 7G 1G15G16G21G19G23
  22243040.6714  -15719813.14048 -12109256.25146                  22243036.9724
     -1906.1674
  23115550.7604  -13983213.64847 -10889120.86745                  23115546.8014
     -2435.3764
  21755435.3324  -18957546.89948 -14768873.36946                  21755431.6364
      -530.1374
  21941969.6854  -14325912.90148 -14073856.67346                  21941964.1654
       786.5044
  23710525.5114   -9646524.43147  -7511707.53444                  23710520.7274
     -1810.8304
  21942604.5564  -11694600.67148 -10144659.27746                  21942597.8934
      1511.7194
  23157334.8094   -8672326.68447  -6751988.59945                  23157328.1764
       279.2144
 06  6 27 12 21 30.0000000  0  7G 7G 1G15G16G21G19G23
  22253924.8994  -15662616.22847 -12064687.23346                  22253921.5274
     -1906.6554
  23129455.5424  -13910144.89347 -10832184.19045                  23129450.6564
     -2435.4544
  21758511.1954  -18941383.12447 -14756278.22146                  21758507.4844
      -547.1924
  21937479.1854  -14349509.46048 -14092243.60146                  21937473.6714
       786.9194
  23720897.7204   -9592008.77747  -7469227.80044                  23720894.6884
     -1823.1934
  21934011.3994  -11739756.78147 -10179845.84246                  21934005.1814
      1499.0874
  23155783.5264   -8680477.02846  -6758339.53845                  23155777.1044
       264.4344
 06  6 27 12 22  0.0000000  0  7G 7G 1G15G16G21G19G23
  22264810.8204  -15605411.03847 -12020111.75546                  22264806.6924
     -1906.9434
  23143358.5484  -13837080.27247 -10775250.71445                  23143354.5674
     -2435.3524
  21761683.7324  -18924711.13348 -14743287.06246                  21761679.6844
      -564.1704
  21932985.4684  -14373123.29348 -14110643.99746                  21932980.4464
       787.3884
  23731343.5314   -9537128.82147  -7426464.23845                  23731337.8604
     -1835.3764
  21925490.1674  -11784536.79948 -10214739.37246                  21925483.6434
      1486.3524
  23154317.8094   -8688186.33347  -6764346.77545                  23154309.9854
       249.6484
 06  6 27 12 22 30.0000000  0  7G 7G 1G15G16G21G19G23
  22275698.2254  -15548196.94647 -11975529.36546                  22275694.1314
     -1907.3294
  23157261.5464  -13764020.03347 -10718320.62745                  23157257.5484
     -2435.3764
  21764953.5734  -18907528.62047 -14729898.09246                  21764949.6814
      -581.2354
  21928489.5904  -14396750.81648 -14129055.06246                  21928484.4844
       787.7644
  23741855.1984   -9481883.88147  -7383416.25344                  23741850.7594
     -1847.5204
  21917040.8534  -11828938.92147 -10249338.43646                  21917034.5884
      1473.7214
  23152933.6424   -8695453.56947  -6770009.54545                  23152927.8154
       234.7464
 06  6 27 12 23  0.0000000  0  7G 7G 1G15G16G21G19G23
  22286586.9694  -15490976.41347 -11930941.92846                  22286583.3104
     -1907.3244
  23171163.1374  -13690967.74447 -10661396.74245                  23171159.0434
     -2434.8194
  21768320.1814  -18889836.59048 -14716112.08746                  21768316.0924
      -598.0714
  21923990.8334  -14420391.55948 -14147476.42346                  21923985.7504
       788.3984
  23752437.6624   -9426276.20147  -7340085.59045                  23752432.3774
     -1859.5364
  21908662.6264  -11872964.40847 -10283643.98946                  21908657.1784
      1461.3874
  23151635.1384   -8702280.65347  -6775329.36545                  23151628.6374
       220.3474
 06  6 27 12 23 30.0000000  0  7G 7G 1G15G16G21G19G23
  22297473.6784  -15433763.17747 -11886360.19546                  22297470.0684
     -1907.0414
  23185060.1804  -13617938.39847 -10604490.73645                  23185056.0134
     -2433.9064
  21771781.3434  -18871647.65348 -14701938.88846                  21771777.1744
      -614.6394
  21919487.3474  -14444057.12448 -14165917.12246                  21919482.0514
       789.2334
  23763084.8774   -9370319.54747  -7296483.03445                  23763080.7964
     -1871.0604
  21900354.1304  -11916625.91348 -10317665.95046                  21900347.5124
      1449.3024
  23150416.9054   -8708681.45047  -6780316.96145                  23150409.5094
       206.3044
 06  6 27 12 24  0.0000000  0  7G 7G 1G15G16G21G19G23
  22308359.9464  -15376556.84747 -11841783.82246                  22308356.1864
     -1906.7874
  23198953.2404  -13544932.72547 -10547603.18245                  23198948.7874
     -2433.0474
  21775337.4764  -18852960.10247 -14687377.16946                  21775333.5904
      -631.3724
  21914979.7904  -14467744.36148 -14184374.70146                  21914974.5874
       789.8494
  23773799.7804   -9314013.32746  -7252608.04344                  23773795.8774
     -1882.7594
  21892115.4644  -11959921.71048 -10351402.92946                  21892108.5254
      1437.0654
  23149279.5834   -8714655.08446  -6784971.73345                  23149273.6464
       191.8654
 06  6 27 12 24 30.0000000  0  7G 7G 1G15G16G21G19G23
  22319246.0084  -15319351.84047 -11797208.50646                  22319241.4694
     -1907.1884
  23212841.4734  -13471946.34447 -10490730.68545                  23212836.9924
     -2432.8964
  21778989.9274  -18833766.80148 -14672421.34946                  21778985.8014
      -648.6434
  21910469.7544  -14491444.70548 -14202842.50746                  21910464.4674
       789.8004
  23784582.7634   -9257352.11947  -7208456.49844                  23784577.8084
     -1895.0344
  21883947.3504  -12002845.53848 -10384850.08346                  21883940.7174
      1424.2094
  23148225.5964   -8720195.93947  -6789289.28945                  23148218.4974
       177.1484
 06  6 27 12 25  0.0000000  0  7G 7G 1G15G16G21G19G23
  22330130.5724  -15262154.35347 -11752639.02446                  22330126.3354
     -1906.6364
  23226725.6194  -13398986.37947 -10433878.73444                  23226720.3414
     -2431.8264
  21782737.9304  -18814072.59747 -14657075.22046                  21782733.5004
      -665.1564
  21905956.7014  -14515161.62648 -14221323.22446                  21905951.2404
       790.5134
  23795430.6754   -9200341.93647  -7164032.98544                  23795426.5214
     -1906.4114
  21875848.8214  -12045402.14348 -10418011.07746                  21875842.6994
      1412.1244
  23147252.5994   -8725309.95046  -6793274.22245                  23147246.4194
       163.1154
 06  6 27 12 25 30.0000000  0  7G 7G 1G15G16G21G19G23
  22341014.3664  -15204957.38347 -11708069.96546                  22341009.7684
     -1906.6554
  23240605.0344  -13326047.30847 -10377043.07845                  23240600.8384
     -2430.9234
  21786581.7434  -18793869.65048 -14641332.66046                  21786577.9184
      -682.0264
  21901442.0054  -14538886.27248 -14239809.96946                  21901436.8774
       790.8204
  23806347.9674   -9142976.05446  -7119332.32044                  23806342.5004
     -1918.2034
  21867821.5944  -12087584.01548 -10450880.05246                  21867815.4524
      1399.7364
  23146361.7744   -8729990.47147  -6796921.37545                  23146355.4004
       148.6874
 06  6 27 12 26  0.0000000  0  7G 7G 1G15G16G21G19G23
  22351897.7684  -15147764.32347 -11663503.93846                  22351894.1584
     -1906.3924
  23254480.0344  -13253133.12247 -10320226.82745                  23254476.3634
     -2429.9614
  21790523.0534  -18773159.85748 -14625195.14846                  21790518.9894
      -698.7264
  21896925.9994  -14562618.54048 -14258302.62946                  21896920.6814
       791.2064
  23817329.9374   -9085257.54147  -7074356.86644                  23817326.6284
     -1929.7464
  21859865.9044  -12129392.58048 -10483458.14446                  21859859.7884
      1387.4954
  23145552.9774   -8734240.19347  -6800232.84045                  23145546.2844
       134.5214
 06  6 27 12 26 30.0000000  0  7G 7G 1G15G16G21G19G23
  22362780.4244  -15090577.47247 -11618942.74846                  22362776.0464
     -1905.9574
  23268349.8884  -13180247.40547 -10263432.77745                  23268345.5254
     -2428.9064
  21794560.3054  -18751944.49248 -14608663.69146                  21794555.6794
      -715.4984
  21892408.4804  -14586358.25648 -14276801.09546                  21892402.8914
       791.5334
  23828381.0634   -9027188.62146  -7029108.37144                  23828376.6104
     -1941.3434
  21851980.8964  -12170829.45048 -10515746.60646                  21851974.1414
      1375.1864
  23144826.1744   -8738061.45747  -6803210.44545                  23144819.7684
       120.3524
 06  6 27 12 27  0.0000000  0  7G 7G 1G15G16G21G19G23
  22373660.5074  -15033404.08748 -11574392.06046                  22373656.2784
     -1905.4004
  23282212.4674  -13107398.58647 -10206667.42345                  23282207.9674
     -2427.5104
  21798692.5004  -18730229.61048 -14591742.99446                  21798688.4084
      -731.9684
  21887888.5254  -14610110.01048 -14295308.96446                  21887883.3164
       792.0124
  23839496.5784   -8968776.85846  -6983592.74644                  23839491.4624
     -1952.7304
  21844165.0664  -12211901.28848 -10547750.65246                  21844158.8444
      1363.0574
  23144179.2914   -8741461.88247  -6805860.14345                  23144172.5994
       106.4604
 06  6 27 12 27 30.0000000  0  7G 7G 1G15G16G21G19G23
  22384538.0964  -14976240.25247 -11529848.82146                  22384534.4654
     -1905.1224
  23296068.5504  -13034583.98347 -10149928.78145                  23296064.1484
     -2426.3184
  21802920.7554  -18708010.56848 -14574429.46146                  21802916.1164
      -748.9064
  21883367.7184  -14633867.40348 -14313821.22046                  21883362.4134
       792.1484
  23850678.2614   -8910018.64046  -6937807.16644                  23850672.5354
     -1964.1504
  21836419.7704  -12252603.12648 -10579466.36346                  21836414.0944
      1350.7234
  23143612.9964   -8744437.47747  -6808178.77545                  23143605.8964
        92.2514
 06  6 27 12 28  0.0000000  0  7G 7G 1G15G16G21G19G23
  22395411.8094  -14919098.66947 -11485322.91346                  22395407.0474
     -1904.4194
  23309915.4204  -12961817.23647 -10093227.41545                  23309911.5304
     -2424.8194
  21807242.4094  -18685298.57248 -14556731.78746                  21807238.2484
      -765.3424
  21878843.7634  -14657640.03148 -14332345.34346                  21878838.7674
       792.6324
  23861922.8954   -8850926.42946  -6891761.28344                  23861917.7224
     -1975.3564
  21828742.9834  -12292946.70547 -10610902.90946                  21828736.5164
      1338.7164
  23143124.7504   -8747000.90847  -6810176.25645                  23143117.7864
        78.4424
 06  6 27 12 28 30.0000000  0  7G 7G 1G15G16G21G19G23
  22406283.0044  -14861970.71947 -11440807.62246                  22406278.5544
     -1903.8534
  23323754.8594  -12889090.91447 -10036557.55545                  23323750.1734
     -2423.4234
  21811659.9844  -18662084.22948 -14538642.69446                  21811655.1514
      -782.0364
  21874318.9894  -14681417.28348 -14350873.07346                  21874314.2764
       792.7104
  23873232.6754   -8791491.93146  -6845448.70344                  23873227.7434
     -1986.7144
  21821135.8474  -12332922.38148 -10642052.79646                  21821129.9144
      1326.4844
  23142717.2824   -8749143.00347  -6811845.42145                  23142711.2954
        64.6244
 06  6 27 12 29  0.0000000  0  7G 7G 1G15G16G21G19G23
  22417151.4604  -14804856.48448 -11396303.00346                  22417146.3024
     -1903.4964
  23337586.2394  -12816406.22747  -9979920.12845                  23337582.9204
     -2422.1054
  21816173.4704  -18638366.48848 -14520161.33046                  21816169.1604
      -798.9894
  21869794.3954  -14705196.32348 -14369402.18546                  21869789.1044
       792.7154
  23884607.6814   -8731715.23746  -6798869.48644                  23884603.1954
     -1998.3014
  21813598.3534  -12372529.34247 -10672915.35146                  21813592.4834
      1314.1654
  23142389.6434   -8750864.68147  -6813186.96345                  23142382.7544
        50.3524
 06  6 27 12 29 30.0000000  0  7G 7G 1G15G16G21G19G23
  22428017.4044  -14747755.23648 -11351808.51046                  22428013.6714
     -1902.8564
  23351409.3524  -12743763.43447  -9923315.35945                  23351406.4144
     -2420.4594
  21820782.8954  -18614143.50148 -14501286.26846                  21820778.2144
      -815.5184
  21865269.3134  -14728973.54148 -14387929.87446                  21865264.3224
       792.8324
  23896048.1604   -8671595.79946  -6752023.15644                  23896043.2154
     -2009.2094
  21806132.4134  -12411765.80748 -10703489.22146                  21806125.6374
      1302.0214
  23142142.3254   -8752165.20947  -6814200.35945                  23142135.1514
        36.5924
 06  6 27 12 30  0.0000000  0  7G 7G 1G15G16G21G19G23
  22438879.7414  -14690674.25048 -11307329.83146                  22438875.9674
     -1902.3444
  23365224.0024  -12671171.19247  -9866749.95645                  23365220.4224
     -2418.8824
  21825486.6964  -18589421.74248 -14482022.55246                  21825483.2474
      -832.3784
  21860744.1364  -14752753.89248 -14406460.02746                  21860739.2944
       792.6954
  23907551.8534   -8611141.27446  -6704915.78044                  23907547.2574
     -2020.6354
  21798735.1364  -12450638.65048 -10733779.75046                  21798728.2734
      1289.6534
  23141973.3064   -8753052.12947  -6814891.48345                  23141967.4384
        22.6904
 06  6 27 12 30 30.0000000  0  7G 7G 1G15G16G21G19G23
  22449737.3694  -14633616.15548 -11262868.94646                  22449731.7174
     -1901.7044
  23379026.8794  -12598633.07447  -9810226.70145                  23379023.4424
     -2417.1734
  21830285.9354  -18564202.87948 -14462371.48546                  21830282.5494
      -849.1024
  21856218.5884  -14776537.07348 -14424992.36946                  21856213.0844
       792.6374
  23919119.7004   -8550354.22946  -6657549.25144                  23919114.2274
     -2031.8554
  21791406.2114  -12489149.53348 -10763788.21646                  21791400.4684
      1277.5244
  23141883.1294   -8753527.97547  -6815262.25745                  23141875.6354
         8.8484
 06  6 27 12 31  0.0000000  0  7G 7G 1G15G16G21G19G23
  22460590.6664  -14576582.45648 -11218427.09546                  22460586.3274
     -1900.7374
  23392819.4594  -12526151.82347  -9753747.79644                  23392816.0054
     -2415.1324
  21835179.4514  -18538487.84948 -14442333.80546                  21835175.6594
      -865.4494
  21851692.6904  -14800321.63848 -14443525.79046                  21851686.9024
       792.7834
  23930750.0584   -8489236.50746  -6609925.06144                  23930744.6394
     -2042.7004
  21784146.8684  -12527299.12448 -10793515.17246                  21784141.0234
      1265.6544
  23141869.7054   -8753594.16247  -6815313.81845                  23141863.1024
        -4.5904
 06  6 27 12 31 30.0000000  0  7G 7G 1G15G16G21G19G23
  22471440.3024  -14519567.16548 -11173999.60246                  22471436.5104
     -1900.3084
  23406602.7874  -12453722.46447  -9697309.35744                  23406598.8454
     -2413.5644
  21840168.9664  -18512269.71048 -14421904.08546                  21840164.5874
      -882.4074
  21847168.0074  -14824099.47848 -14462053.95946                  21847162.9094
       792.3784
  23942445.0734   -8427782.32746  -6562038.69944                  23942440.1204
     -2054.2434
  21776957.7374  -12565080.47747 -10822955.20146                  21776951.5854
      1253.1644
  23141936.7174   -8753245.56347  -6815042.20045                  23141929.9184
       -18.6624
 06  6 27 12 32  0.0000000  0  7G 7G 1G15G16G21G19G23
  22482285.2454  -14462572.81448 -11129588.41146                  22482280.8614
     -1899.1654
  23420375.2314  -12381348.62247  -9640914.16444                  23420370.9154
     -2411.2504
  21845253.4314  -18485550.09548 -14401083.60846                  21845248.6914
      -898.6524
  21842644.0004  -14847870.58748 -14480576.91346                  21842638.4984
       792.5634
  23954202.4484   -8365994.76646  -6513892.57644                  23954197.5034
     -2064.8834
  21769837.6784  -12602495.61047 -10852109.85046                  21769832.3024
      1241.3334
  23142080.9404   -8752484.81647  -6814449.40945                  23142073.9504
       -31.9434
 06  6 27 12 32 30.0000000  0  7G 7G 1G15G16G21G19G23
  22493123.7934  -14405616.05348 -11085206.51246                  22493119.7604
     -1897.8574
  23434133.9854  -12309048.14247  -9584576.09144                  23434129.3004
     -2408.6284
  21850430.3824  -18458344.96548 -14379884.80946                  21850425.8664
      -914.8104
  21838119.5514  -14871648.68648 -14499105.28846                  21838114.2554
       792.8174
  23966019.9224   -8303890.54246  -6465499.67944                  23966015.6184
     -2075.2344
  21762784.2434  -12639560.50548 -10880991.57446                  21762778.5894
      1229.7714
  23142301.3414   -8751328.72547  -6813548.53045                  23142294.9014
       -45.0104
 06  6 27 12 33  0.0000000  0  7G 7G 1G15G16G21G19G23
  22503958.3044  -14348683.47648 -11040843.47246                  22503954.1454
     -1897.6904
  23447880.0824  -12236808.86347  -9528285.71044                  23447875.9574
     -2407.1394
  21855702.2224  -18430640.12148 -14358296.62146                  21855698.3424
      -932.1534
  21833596.4664  -14895417.78348 -14517626.66446                  21833591.1444
       791.8214
  23977900.7954   -8241456.83946  -6416850.10544                  23977895.6814
     -2087.0264
  21755800.2224  -12676261.03948 -10909589.39646                  21755794.8054
      1217.0024
  23142598.7154   -8749764.39147  -6812329.58645                  23142592.4294
       -59.3164
 06  6 27 12 33 30.0000000  0  7G 7G 1G15G16G21G19G23
  22514786.2154  -14291780.81347 -10996503.73346                  22514782.5854
     -1896.0994
  23461613.0214  -12164637.37947  -9472048.18244                  23461610.1334
     -2404.3804
  21861068.2534  -18402440.44847 -14336322.85246                  21861064.2154
      -948.1204
  21829074.5264  -14919180.62948 -14536143.16046                  21829068.8814
       791.9974
  23989844.1264   -8178699.06046  -6367947.90144                  23989838.6244
     -2097.2074
  21748885.2224  -12712602.19748 -10937907.17846                  21748879.2354
      1205.4544
  23142973.6574   -8747797.52047  -6810796.95345                  23142966.5844
       -72.1044
 06  6 27 12 34  0.0000000  0  7G 7G 1G15G16G21G19G23
  22525607.9444  -14234912.47348 -10952190.72146                  22525603.5074
     -1895.1224
  23475333.0384  -12092539.37647  -9415867.90144                  23475329.6754
     -2402.1144
  21866528.0664  -18373749.81548 -14313966.51646                  21866524.3174
      -964.6584
  21824553.4284  -14942939.28148 -14554656.40546                  21824547.8734
       791.7534
  24001846.0024   -8115622.58446  -6318797.36844                  24001840.6564
     -2107.9054
  21742036.7994  -12748588.04248 -10965948.09146                  21742031.0654
      1193.4424
  23143423.5644   -8745433.10347  -6808954.55745                  23143416.8934
       -85.5814
 06  6 27 12 34 30.0000000  0  7G 7G 1G15G16G21G19G23
  22536423.2844  -14178076.35747 -10907902.84546                  22536419.5804
     -1893.8924
  23489039.5174  -12020513.86947  -9359744.12744                  23489035.8774
     -2399.4734
  21872082.0744  -18344565.29248 -14291225.31446                  21872078.0234
      -980.9774
  21820034.0044  -14966689.04047 -14573162.69746                  21820028.9784
       791.5924
  24013910.8114   -8052225.41947  -6269397.00443                  24013904.7664
     -2118.4424
  21735257.1584  -12784215.68448 -10993709.88447                  21735251.0674
      1181.7294
  23143948.8104   -8742669.42547  -6806801.04045                  23143942.2294
       -98.6434
 06  6 27 12 35  0.0000000  0  7G 7G 1G15G16G21G19G23
  22547231.1174  -14121280.23947 -10863646.12746                  22547227.6684
     -1892.2804
  23502730.6004  -11948569.82247  -9303683.85744                  23502726.4164
     -2396.5194
  21877728.0424  -18314894.32348 -14268105.08546                  21877723.8314
      -996.9194
  21815515.2464  -14990434.98147 -14591666.03146                  21815510.0184
       791.6364
  24026034.1994   -7988515.71447  -6219753.07644                  24026028.9724
     -2128.6824
  21728544.3304  -12819492.40148 -11021198.22846                  21728538.3824
      1170.2734
  23144548.2404   -8739514.84247  -6804342.91845                  23144542.8904
      -111.4654
 06  6 27 12 35 30.0000000  0  7G 7G 1G15G16G21G19G23
  22558032.0584  -14064522.17547 -10819419.07646                  22558028.1604
     -1891.3774
  23516405.6044  -11876706.36147  -9247686.35144                  23516400.4374
     -2394.1604
  21883467.1864  -18284734.00048 -14244603.54346                  21883463.5174
     -1013.6084
  21810998.5064  -15014172.29047 -14610162.63346                  21810993.0074
       791.0114
  24038217.9934   -7924491.90846  -6169864.41243                  24038212.3544
     -2139.4824
  21721899.0224  -12854415.51448 -11048411.06146                  21721892.6374
      1158.0964
  23145224.0264   -8735967.70646  -6801578.92845                  23145216.8964
      -124.8444
 06  6 27 12 36  0.0000000  0  7G 7G 1G15G16G21G19G23
  22568827.3494  -14007792.93947 -10775214.47846                  22568823.7834
     -1890.4444
  23530066.0404  -11804915.42247  -9191745.32444                  23530062.1864
     -2391.7724
  21889301.2684  -18254074.92848 -14220713.34146                  21889297.5404
     -1030.2304
  21806484.8974  -15037889.40448 -14628643.49946                  21806480.3934
       790.2594
  24050462.0504   -7860145.46146  -6119724.33044                  24050457.1584
     -2150.2304
  21715322.3374  -12888975.28848 -11075340.74147                  21715316.1414
      1145.9724
  23145975.9154   -8732019.14947  -6798502.12145                  23145968.8574
      -138.2764
 06  6 27 12 36 30.0000000  0  7G 7G 1G15G16G21G19G23
  22579615.2124  -13951104.53947 -10731041.70646                  22579610.6844
     -1889.1024
  23543710.5204  -11733210.10047  -9135871.05944                  23543707.1434
     -2388.9454
  21895228.9404  -18222928.51948 -14196443.41746                  21895224.7734
     -1046.4804
  21801973.6694  -15061595.79147 -14647116.01046                  21801969.0094
       789.8494
  24062765.6674   -7795489.08546  -6069342.74343                  24062760.2554
     -2160.4834
  21708812.7194  -12923183.29148 -11101996.33446                  21708806.7314
      1134.2484
  23146800.5354   -8727681.93946  -6795122.46945                  23146794.1164
      -151.2504
 06  6 27 12 37  0.0000000  0  7G 7G 1G15G16G21G19G23
  22590394.0964  -13894458.76147 -10686902.14746                  22590390.0964
     -1887.5054
  23557339.1664  -11661593.32946  -9080065.80644                  23557334.8464
     -2385.7724
  21901248.0564  -18191295.85348 -14171794.59346                  21901244.0644
     -1062.4664
  21797464.7044  -15085290.17748 -14665579.15946                  21797460.1624
       789.5414
  24075127.6254   -7730524.24246  -6018720.80043                  24075123.0364
     -2170.5864
  21702370.0924  -12957040.88248 -11128378.86946                  21702363.2814
      1122.7734
  23147700.1244   -8722958.13847  -6791441.59045                  23147693.4164
      -163.9454
 06  6 27 12 37 30.0000000  0  7G 7G 1G15G16G21G19G23
  22601164.5244  -13837857.74747 -10642797.47046                  22601160.7834
     -1885.5324
  23570950.2954  -11590068.48447  -9024332.13844                  23570946.6614
     -2382.2614
  21907359.8424  -18159178.90348 -14146768.39846                  21907355.8904
     -1078.2234
  21792958.0624  -15108972.36248 -14684032.80746                  21792952.0014
       789.5124
  24087548.8654   -7665254.24646  -5967861.05044                  24087543.4424
     -2180.3814
  21695993.4874  -12990549.75548 -11154489.69346                  21695987.3264
      1111.4844
  23148672.0224   -8717850.73247  -6787461.78445                  23148665.5904
      -176.2354
 06  6 27 12 38  0.0000000  0  7G 7G 1G15G16G21G19G23
  22611926.9014  -13781300.90647 -10598727.20946                  22611923.9304
     -1884.0924
  23584543.7184  -11518636.30847  -8968670.68644                  23584539.5824
     -2379.1454
  21913563.5834  -18126576.74948 -14121364.10846                  21913559.6264
     -1094.5224
  21788454.6534  -15132639.14748 -14702474.43246                  21788448.6844
       788.9604
  24100027.0794   -7599679.34246  -5916763.70144                  24100022.2334
     -2190.5624
  21689682.9544  -13023709.09848 -11180328.13846                  21689677.2734
      1099.8104
  23149717.1404   -8712359.64747  -6783182.99645                  23149710.0694
      -189.0974
 06  6 27 12 38 30.0000000  0  7G 7G 1G15G16G21G19G23
  22622682.0514  -13724784.03747 -10554688.11946                  22622678.0604
     -1883.2374
  23598119.9484  -11447293.29247  -8913078.69044                  23598115.9964
     -2376.5874
  21919860.8444  -18093484.27248 -14095577.77146                  21919856.4464
     -1111.2704
  21783955.5854  -15156283.33047 -14720898.45146                  21783949.1654
       787.8274
  24112564.3924   -7533795.25046  -5865425.46543                  24112560.0444
     -2201.3184
  21683441.3174  -13056513.64048 -11205890.12946                  21683434.8834
      1087.5344
  23150835.8774   -8706480.94247  -6778602.20345                  23150828.8884
      -202.4224
 06  6 27 12 39  0.0000000  0  7G 7G 1G15G16G21G19G23
  22633428.3964  -13668311.27047 -10510683.35346                  22633425.0974
     -1881.4454
  23611677.4464  -11376044.97246  -8857560.54644                  23611674.1444
     -2373.2324
  21926250.4934  -18059905.72048 -14069412.65746                  21926246.9114
     -1127.1734
  21779460.3804  -15179906.74948 -14739306.30546                  21779455.4354
       787.3194
  24125159.8254   -7467606.32746  -5813849.72944                  24125155.4124
     -2211.3094
  21677265.1414  -13088967.44648 -11231178.81546                  21677259.1554
      1076.1234
  23152027.0604   -8700219.78647  -6773723.36745                  23152020.0674
      -214.8684
 06  6 27 12 39 30.0000000  0  7G 7G 1G15G16G21G19G23
  22644165.6724  -13611888.27647 -10466717.40046                  22644161.8594
     -1880.1074
  23625216.7964  -11304898.03846  -8802121.38644                  23625213.3374
     -2369.9664
  21932732.2174  -18025846.33948 -14042872.87546                  21932727.9544
     -1143.4424
  21774967.7384  -15203512.31247 -14757700.26346                  21774962.3044
       786.3964
  24137811.8954   -7401119.28246  -5762041.61544                  24137808.0774
     -2221.3624
  21671154.8094  -13121075.91948 -11256198.37946                  21671149.7804
      1064.4484
  23153289.4634   -8693582.50247  -6768551.46445                  23153283.4924
      -227.5784
 06  6 27 12 40  0.0000000  0  7G 7G 1G15G16G21G19G23
  22654894.4464  -13555509.72747 -10422786.08546                  22654890.2504
     -1878.2624
  23638737.2304  -11233848.37646  -8746757.99144                  23638732.8034
     -2366.3384
  21939305.9884  -17991300.37048 -14015953.94146                  21939302.3174
     -1159.3164
  21770480.5204  -15227092.10347 -14776074.13346                  21770476.7204
       785.8694
  24150522.5714   -7334329.20346  -5709997.44544                  24150517.6514
     -2231.0794
  21665111.9584  -13152833.45548 -11280944.53246                  21665105.2154
      1053.0524
  23154624.7494   -8686564.28747  -6763082.71745                  23154618.4554
      -240.0204
 06  6 27 12 40 30.0000000  0  7G 7G 1G15G16G21G19G23
  22665613.0554  -13499179.52947 -10378892.44146                  22665609.2344
     -1876.7684
  23652237.6464  -11162900.87846  -8691474.25844                  23652233.5264
     -2363.1104
  21945971.6054  -17956271.41547 -13988658.65946                  21945967.4374
     -1175.6204
  21765998.4254  -15250647.27947 -14794428.81346                  21765992.4614
       784.8194
  24163287.1844   -7267241.05046  -5657720.97244                  24163283.2934
     -2241.1624
  21659134.2174  -13184243.64648 -11305420.00946                  21659128.7154
      1041.2554
  23156032.6884   -8679169.77247  -6757320.77245                  23156026.3514
      -252.5984
 06  6 27 12 41  0.0000000  0  7G 7G 1G15G16G21G19G23
  22676322.8124  -13442901.59948 -10335039.51746                  22676319.1014
     -1875.0294
  23665718.8174  -11092060.70746  -8636274.12244                  23665713.8054
     -2359.4824
  21952728.6544  -17920763.35747 -13960990.04146                  21952724.6824
     -1191.5824
  21761520.7904  -15274179.27647 -14812765.42146                  21761515.5434
       783.9894
  24176110.0614   -7199859.79946  -5605216.10444                  24176105.6214
     -2250.8894
  21653222.8394  -13215310.02448 -11329627.57346                  21653217.0164
      1029.7664
  23157510.3504   -8671403.64647  -6751269.25345                  23157503.8764
      -265.1274
 06  6 27 12 41 30.0000000  0  7G 7G 1G15G16G21G19G23
  22687021.1764  -13386681.45248 -10291231.64046                  22687017.2994
     -1872.9834
  23679176.0964  -11021334.52546  -8581162.79444                  23679173.1414
     -2355.5474
  21959575.8084  -17884781.41247 -13932952.15246                  21959572.0164
     -1207.2174
  21757046.0084  -15297691.03548 -14831086.27646                  21757041.2164
       783.3694
  24188987.2724   -7132190.19046  -5552486.59044                  24188982.2544
     -2260.2694
  21647375.5634  -13246037.79848 -11353571.28946                  21647369.3814
      1018.6914
  23159057.3054   -8663272.30847  -6744933.11945                  23159051.1074
      -276.9874
 06  6 27 12 42  0.0000000  0  7G 7G 1G15G16G21G19G23
  22697708.9934  -13330515.25447 -10247465.79046                  22697705.3004
     -1871.2014
  23692614.5334  -10950719.44646  -8526138.07744                  23692610.6434
     -2352.0264
  21966513.8524  -17848321.53147 -13904541.86446                  21966509.8764
     -1223.1694
  21752577.4464  -15321175.85648 -14849386.14846                  21752572.4904
       782.3884
  24201920.2464   -7064229.66446  -5499530.33143                  24201914.4974
     -2270.0594
  21641593.2154  -13276422.83148 -11377247.94446                  21641587.0754
      1007.1834
  23160674.6224   -8654772.55847  -6738309.96245                  23160668.6604
      -289.3364
 06  6 27 12 42 30.0000000  0  7G 7G 1G15G16G21G19G23
  22708386.3984  -13274407.58548 -10203745.53646                  22708382.4024
     -1869.4434
  23706029.4634  -10880221.39346  -8471204.55944                  23706026.2664
     -2348.0964
  21973541.9494  -17811388.28247 -13875762.71446                  21973538.0504
     -1239.1164
  21748113.1194  -15344636.15048 -14867666.89846                  21748107.6804
       781.4454
  24214906.4354   -6995983.77846  -5446351.68744                  24214901.9204
     -2279.6194
  21635875.5174  -13306469.74348 -11400661.13146                  21635869.2114
       995.8064
  23162361.6544   -8645910.04847  -6731404.11245                  23162356.1844
      -301.6314
 06  6 27 12 43  0.0000000  0  7G 7G 1G15G16G21G19G23
  22719052.1134  -13218355.31347 -10160068.45746                  22719048.7894
     -1867.3834
  23719423.1604  -10809838.25146  -8416360.54344                  23719419.8664
     -2344.1164
  21980660.7824  -17773978.15947 -13846611.96946                  21980657.0814
     -1254.8244
  21743654.6104  -15368065.57448 -14885923.58546                  21743649.0564
       780.5424
  24227948.3474   -6927449.32246  -5392948.30944                  24227943.8104
     -2289.3024
  21630222.7234  -13336175.06748 -11423808.12546                  21630216.4874
       984.5654
  23164117.9574   -8636681.96947  -6724213.38745                  23164110.3984
      -313.5744
 06  6 27 12 43 30.0000000  0  7G 7G 1G15G16G21G19G23
  22729707.5324  -13162363.18347 -10116438.23045                  22729703.6684
     -1865.1424
  23732793.8034  -10739575.77746  -8361610.56344                  23732790.7404
     -2339.7664
  21987869.7834  -17736095.85647 -13817093.29646                  21987866.0914
     -1270.3564
  21739201.7124  -15391466.47448 -14904158.05346                  21739196.0504
       779.7664
  24241043.6364   -6858632.58346  -5339324.87844                  24241039.1324
     -2298.2724
  21624634.6114  -13365542.91448 -11446692.17446                  21624628.5414
       973.5794
  23165942.0014   -8627094.32547  -6716742.47345                  23165935.8534
      -325.2784
 06  6 27 12 44  0.0000000  0  7G 7G 1G15G16G21G19G23
  22740351.5764  -13106429.37047 -10072853.45246                  22740347.5224
     -1863.6044
  23746142.0574  -10669433.67046  -8306954.35544                  23746137.3734
     -2336.1044
  21995168.4394  -17697739.96547 -13787205.59646                  21995165.1124
     -1286.4754
  21734754.4894  -15414834.71048 -14922367.06246                  21734749.8304
       778.2524
  24254193.3554   -6789532.45446  -5285480.64644                  24254188.0734
     -2308.1644
  21619110.3074  -13394571.95848 -11469312.21046                  21619104.5214
       961.9044
  23167834.8504   -8617146.20447  -6708990.71445                  23167828.1244
      -337.7004
 06  6 27 12 44 30.0000000  0  7G 7G 1G15G16G21G19G23
  22750982.9274  -13050560.10148 -10029318.96645                  22750978.9804
     -1861.0944
  23759464.5804  -10599418.93046  -8252397.42244                  23759459.9554
     -2331.5624
  22002556.5234  -17658916.17947 -13756953.31046                  22002552.9084
     -1301.8754
  21730313.8404  -15438173.57048 -14940553.19046                  21730308.2834
       777.5594
  24267395.2184   -6720155.73945  -5231420.92344                  24267390.9324
     -2317.1344
  21613649.4084  -13423268.11648 -11491672.85046                  21613642.9354
       951.1624
  23169794.9434   -8606844.50947  -6700963.42245                  23169789.4704
      -349.2044
 06  6 27 12 45  0.0000000  0  7G 7G 1G15G16G21G19G23
  22761602.6524  -12994752.56448  -9985832.59545                  22761598.4694
     -1859.3264
  23772764.0444  -10529529.91446  -8197938.47044                  23772759.6304
     -2327.5884
  22010033.6104  -17619621.78547 -13726334.29746                  22010029.9764
     -1317.7344
  21725878.6234  -15461477.81548 -14958712.33046                  21725873.3024
       776.1674
  24280650.7154   -6650499.82946  -5177143.66944                  24280646.1564
     -2326.6264
  21608252.9074  -13451628.43448 -11513771.80646                  21608246.4374
       939.6534
  23171823.4904   -8596187.64247  -6692659.35545                  23171816.7444
      -361.1624
 06  6 27 12 45 30.0000000  0  7G 7G 1G15G16G21G19G23
  22772212.2184  -12938999.57548  -9942388.69945                  22772208.5484
     -1857.3934
  23786041.0444  -10459760.58646  -8143572.72544                  23786037.1054
     -2323.4964
  22017602.3054  -17579849.72147 -13695343.08346                  22017598.7584
     -1333.5504
  21721452.6164  -15484737.28948 -14976836.60046                  21721447.1514
       774.6484
  24293959.9584   -6580559.04946  -5122644.37844                  24293955.8904
     -2336.0354
  21602921.2144  -13479645.66248 -11535603.41446                  21602914.8164
       928.2964
  23173919.9534   -8585169.26047  -6684073.57845                  23173914.4994
      -373.2034
 06  6 27 12 46  0.0000000  0  7G 7G 1G15G16G21G19G23
  22782808.9164  -12883312.78848  -9898996.40645                  22782804.6574
     -1854.9224
  23799292.6574  -10390124.08046  -8089310.52244                  23799288.9104
     -2318.8774
  22025259.5694  -17539611.93547 -13663988.96746                  22025255.5964
     -1348.8964
  21717033.3894  -15507961.40548 -14994933.31046                  21717027.9754
       773.7064
  24307321.0564   -6510345.95846  -5067932.88043                  24307316.6214
     -2344.8974
  21597652.9494  -13507331.67148 -11557176.93146                  21597647.2594
       917.4854
  23176082.9664   -8573802.23946  -6675216.18445                  23176076.4884
      -384.5024
 06  6 27 12 46 30.0000000  0  7G 7G 1G15G16G21G19G23
  22793392.0024  -12827696.15647  -9855658.77045                  22793388.4364
     -1852.6124
  23812517.5124  -10320625.14146  -8035155.49244                  23812513.9284
     -2314.2244
  22033003.9884  -17498912.11647 -13632274.81346                  22033000.6144
     -1364.3074
  21712620.3084  -15531151.61948 -15013003.60546                  21712615.2954
       772.4124
  24320733.1894   -6439865.19746  -5013012.80843                  24320727.8434
     -2353.7164
  21592447.0654  -13534690.06148 -11578495.16047                  21592441.0184
       906.5534
  23178311.6334   -8562091.05547  -6666090.59845                  23178304.8084
      -396.0744
 06  6 27 12 47  0.0000000  0  7G 7G 1G15G16G21G19G23
  22803962.9154  -12772147.84448  -9812374.39245                  22803958.7394
     -1850.7624
  23825716.7684  -10251263.20146  -7981107.23044                  23825712.9234
     -2310.1664
  22040837.3464  -17457748.79047 -13600199.50246                  22040833.2634
     -1380.1564
  21708214.6704  -15554303.55248 -15031044.07846                  21708209.0384
       770.6934
  24334196.7344   -6369115.70846  -4957883.32743                  24334190.6104
     -2363.1154
  21587303.1374  -13561719.15548 -11599556.77546                  21587297.0104
       895.1904
  23180605.5484   -8550035.60447  -6656696.73745                  23180598.5904
      -407.9204
 06  6 27 12 47 30.0000000  0  7G 7G 1G15G16G21G19G23
  22814520.1904  -12716668.42148  -9769143.66845                  22814516.4004
     -1847.7494
  23838889.1094  -10182039.81046  -7927166.97043                  23838885.5274
     -2304.7314
  22048759.0114  -17416122.43147 -13567763.37846                  22048754.6184
     -1394.8834
  21703816.6054  -15577414.84148 -15049052.86446                  21703811.6294
       770.0204
  24347709.6254   -6298098.56146  -4902545.35343                  24347704.8764
     -2371.1874
  21582222.3854  -13588419.12648 -11620361.95446                  21582216.5564
       884.8974
  23182965.8144   -8537636.71246  -6647035.24945                  23182957.8124
      -418.6674
 06  6 27 12 48  0.0000000  0  7G 7G 1G15G16G21G19G23
  22825062.8924  -12661267.03247  -9725973.76145                  22825059.0604
     -1845.7284
  23852034.2074  -10112965.35646  -7873342.67043                  23852029.0634
     -2300.3524
  22056766.5004  -17374042.48047 -13534973.80046                  22056761.7114
     -1410.6104
  21699425.3964  -15600491.77848 -15067034.89246                  21699419.7814
       768.2814
  24361273.4224   -6226823.80446  -4847006.58944                  24361267.6414
     -2380.4594
  21577202.7054  -13614799.42548 -11640918.02646                  21577196.5804
       873.6284
  23185387.9904   -8524905.08847  -6637114.51045                  23185380.7614
      -430.2694
 06  6 27 12 48 30.0000000  0  7G 7G 1G15G16G21G19G23
  22835593.9804  -12605926.27647  -9682851.09845                  22835589.9474
     -1843.5304
  23865152.6174  -10044023.61846  -7819621.82644                  23865149.0404
     -2295.6254
  22064863.3824  -17331491.71047 -13501817.35646                  22064858.7964
     -1426.0404
  21695044.2454  -15623515.02448 -15084975.08446                  21695039.2314
       766.7534
  24374887.6824   -6155275.52546  -4791254.65744                  24374883.2974
     -2389.3124
  21572246.6874  -13640842.70448 -11661211.48447                  21572241.1724
       862.6614
  23187877.4024   -8511824.36346  -6626921.73045                  23187870.4524
      -441.6994
 06  6 27 12 49  0.0000000  0  7G 7G 1G15G16G21G19G23
  22846111.4414  -12550656.77947  -9639783.95645                  22846107.1384
     -1841.1184
  23878244.8374   -9975226.38946  -7766013.62944                  23878241.2414
     -2290.8204
  22073047.9024  -17288481.20248 -13468302.65946                  22073043.6204
     -1441.3184
  21690671.5684  -15646492.63048 -15102879.70346                  21690666.6394
       765.1374
  24388553.4914   -6083465.22246  -4735298.57443                  24388548.7824
     -2398.0274
  21567352.8074  -13666559.63748 -11681250.64547                  21567346.6744
       851.7774
  23190430.7174   -8498406.25447  -6616466.05145                  23190423.8884
      -452.9154
 06  6 27 12 49 30.0000000  0  7G 7G 1G15G16G21G19G23
  22856614.2954  -12495461.12747  -9596774.35145                  22856610.3004
     -1838.9404
  23891308.3374   -9906577.33246  -7712520.88344                  23891304.3514
     -2286.0454
  22081319.7294  -17245013.49748 -13434431.71646                  22081316.0814
     -1456.8314
  21686307.8144  -15669424.12548 -15120748.40046                  21686302.5864
       763.3554
  24402267.7224   -6011396.13146  -4679140.92743                  24402263.9764
     -2407.0314
  21562521.1084  -13691952.89748 -11701037.59246                  21562514.9404
       840.7324
  23193047.6944   -8484654.81147  -6605750.64145                  23193041.1354
      -464.2684
 06  6 27 12 50  0.0000000  0  7G 7G 1G15G16G21G19G23
  22867104.9724  -12440335.12547  -9553819.05245                  22867101.0574
     -1836.2264
  23904344.6414   -9838073.31546  -7659141.10544                  23904340.3464
     -2280.9184
  22089679.0564  -17201084.77247 -13400201.55146                  22089674.9714
     -1471.7734
  21681954.4384  -15692302.79748 -15138575.94946                  21681948.9154
       761.8994
  24416032.2044   -5939064.97446  -4622779.02343                  24416027.7674
     -2415.1564
  21557751.0274  -13717018.68848 -11720569.37747                  21557744.8744
       830.2394
  23195728.4674   -8470566.61646  -6594772.84145                  23195721.7154
      -475.0934
 06  6 27 12 50 30.0000000  0  8G 7G 1G15G16G21G19G22G23
  22877579.1364  -12385291.29647  -9510927.75245                  22877574.8864
     -1833.4184
  23917349.8864   -9769727.97246  -7605885.03444                  23917346.7334
     -2275.5224
  22098123.3994  -17156707.90048 -13365622.16446                  22098119.5734
     -1486.7094
  21677608.8114  -15715138.96348 -15156370.35946                  21677603.6014
       760.4744
  24429843.5104   -5866485.21946  -4566223.38143                  24429839.2254
     -2423.5214
  21553040.8814  -13741769.23448 -11739855.51046                  21553033.8704
       819.7614
  24478469.9744     -23293.17546    -15250.93743                  24478463.4464
      1310.9474
  23198470.1644   -8456155.48146  -6583543.37945                  23198464.3084
      -485.7714
 06  6 27 12 51  0.0000000  0  8G 7G 1G15G16G21G19G22G23
  22888039.7634  -12330323.74547  -9468095.91245                  22888034.9584
     -1831.5194
  23930325.6414   -9701536.55046  -7552748.89644                  23930322.5024
     -2271.0994
  22106654.6574  -17111877.61048 -13330689.48046                  22106651.2634
     -1502.4464
  21673273.0744  -15737924.02648 -15174124.96046                  21673267.1514
       758.0374
  24443702.7454   -5793652.23446  -4509470.27043                  24443699.1244
     -2432.5984
  21548392.1154  -13766199.12848 -11758891.79747                  21548386.0884
       808.4424
  24470989.4504     -62603.91246    -45882.68244                  24470982.9424
      1309.3164
  23201275.3254   -8441416.86646  -6572058.76345                  23201267.9244
      -497.3194
 06  6 27 12 51 30.0000000  0  8G 7G 1G15G16G21G19G22G23
  22898484.9374  -12275430.07247  -9425321.64545                  22898481.0354
     -1828.5644
  23943273.6754   -9633497.94746  -7499731.79344                  23943270.2544
     -2265.4594
  22115271.7814  -17066591.88348 -13295401.90346                  22115268.7574
     -1517.1534
  21668947.6284  -15760653.09147 -15191835.92546                  21668942.1064
       756.6264
  24457610.5124   -5720564.43546  -4452518.77042                  24457605.7644
     -2440.6404
  21543805.1774  -13790306.36947 -11777676.67146                  21543798.4844
       798.1494
  24463514.5104    -101884.84646    -76491.20544                  24463507.9494
      1308.7704
  23204141.9934   -8426349.57247  -6560318.01445                  23204136.1914
      -507.6614
 06  6 27 12 52  0.0000000  0  8G 7G 1G15G16G21G19G22G23
  22908914.9264  -12220622.14947  -9382614.17345                  22908910.4554
     -1825.7814
  23956189.1954   -9565624.96846  -7446843.76244                  23956185.0644
     -2259.9274
  22123974.1144  -17020862.57547 -13259768.68345                  22123970.7204
     -1532.0264
  21664631.4424  -15783334.95148 -15209510.09546                  21664625.8754
       754.9664
  24471564.9994   -5647234.60845  -4395378.61342                  24471560.3794
     -2448.5404
  21539276.5444  -13814102.51147 -11796219.10846                  21539270.4524
       787.6764
  24456043.7834    -141143.53746   -107082.40744                  24456037.2174
      1307.9884
  23207069.6084   -8410966.49747  -6548331.19645                  23207063.0974
      -518.2864
 06  6 27 12 52 30.0000000  0  8G 7G 1G15G16G21G19G22G23
  22919329.3554  -12165893.20747  -9339968.24945                  22919325.4864
     -1822.8864
  23969074.0614   -9497912.26646  -7394080.66343                  23969070.8564
     -2254.2244
  22132761.7704  -16974683.74148 -13223785.16045                  22132757.4144
     -1546.6364
  21660325.9814  -15805960.87147 -15227140.68046                  21660320.2384
       753.3944
  24485567.1214   -5573656.92545  -4338045.39142                  24485561.8434
     -2456.7044
  21534808.4544  -13837581.39347 -11814514.33446                  21534802.3584
       777.4224
  24448579.4894    -180370.80446   -137649.10344                  24448572.1604
      1307.0314
  23210057.7044   -8395262.46947  -6536094.27345                  23210051.1434
      -528.5694
 06  6 27 12 53  0.0000000  0  8G 7G 1G15G16G21G19G22G23
  22929726.9254  -12111254.17247  -9297392.40945                  22929722.8544
     -1819.7414
  23981926.6224   -9430371.68446  -7341451.59843                  23981923.3074
     -2248.4674
  22141632.5354  -16928066.81748 -13187460.25445                  22141626.0434
     -1561.1724
  21656029.1254  -15828539.20648 -15244734.19746                  21656024.0864
       751.7634
  24499612.5394   -5499843.82346  -4280528.72943                  24499607.9334
     -2464.3944
  21530398.9274  -13860754.12748 -11832570.99946                  21530392.4274
       767.2954
  24441118.8154    -219573.36946   -168196.57044                  24441112.1914
      1306.2844
  23213105.0514   -8379249.74447  -6523616.82745                  23213099.0294
      -538.8434
 06  6 27 12 53 29.9990000  0  9G 7G 1G15G16G21G19G22G23G11
  22940106.5554  -12056708.02347  -9254888.92045                  22940102.6544
     -1816.7434
  23994746.8844   -9363007.40346  -7288959.96943                  23994742.2714
     -2242.5344
  22150586.3924  -16881014.76547 -13150796.28645                  22150582.4144
     -1575.6884
  21651742.1714  -15851067.48148 -15262288.70146                  21651737.4534
       750.1614
  24513702.3154   -5425799.69545  -4222832.07443                  24513698.3784
     -2471.9824
  21526047.4834  -13883621.10248 -11850389.42947                  21526041.3684
       757.2074
  24433664.3124    -258747.36447   -198721.79044                  24433657.6314
      1305.4054
  23216210.7224   -8362931.01547  -6510900.92545                  23216203.9794
      -548.9944
  24345780.7214    -292633.92345
      3863.3694
 06  6 27 12 53 59.9990000  0 10G 7G 1G15G16G21G19G22G23G11G13
  22950468.4414  -12002253.36147  -9212456.76345                  22950464.9074
     -1813.7994
  24007532.7374   -9295818.69546  -7236605.13443                  24007528.1104
     -2236.8754
  22159622.8794  -16833527.38248 -13113793.13346                  22159618.2364
     -1590.3524
  21647465.0904  -15873546.92648 -15279805.16246                  21647459.4764
       748.2034
  24527837.0924   -5351523.05646  -4164954.20443                  24527832.8384
     -2480.0594
  21521752.9704  -13906186.85648 -11867973.12246                  21521747.4254
       746.9044
  24426215.5724    -297894.50247   -229226.06644                  24426207.8764
      1304.0334
  23219373.7444   -8346309.25647  -6497948.92245                  23219367.4124
      -559.3804
  24323731.4754    -408502.28445
      3861.0994
  24509927.5484     -11215.18146     -5143.28553                  24509922.3194
       671.6554
 06  6 27 12 54 29.9990000  0 10G 7G 1G15G16G21G19G22G23G11G13
  22960817.2764  -11947874.18847  -9170083.39245                  22960813.2964
     -1811.1874
  24020286.4424   -9228790.85246  -7184375.64043                  24020282.6194
     -2231.3094
  22168745.1944  -16785588.77147 -13076438.40646                  22168742.4504
     -1605.1864
  21643200.2984  -15895956.86448 -15297267.45646                  21643195.2494
       746.0064
  24542018.8754   -5276999.48446  -4106883.86443                  24542014.6484
     -2488.1054
  21517520.2504  -13928432.78548 -11885307.61147                  21517513.9614
       736.3774
  24418774.4424    -336992.43347   -259691.97344                  24418768.1724
      1302.6564
  23222596.2074   -8329368.24147  -6484748.14445                  23222590.2134
      -569.7754
  24301696.1694    -524301.50745
      3859.0774
  24506135.2524     -31148.78846    -20676.02042                  24506129.4584
       657.5004
 06  6 27 12 54 59.9990000  0 10G 7G 1G15G16G21G19G22G23G11G13
  22971148.0374  -11893583.39147  -9127778.90245                  22971144.0324
     -1808.2574
  24033008.6624   -9161938.07646  -7132282.52043                  24033004.1714
     -2225.3614
  22177950.4794  -16737212.60648 -13038742.68346                  22177946.3404
     -1619.8494
  21638947.1854  -15918307.16348 -15314683.27946                  21638942.1764
       743.9844
  24556244.5224   -5202243.24946  -4048632.28943                  24556240.0864
     -2495.6884
  21513345.4354  -13950372.13148 -11902403.19646                  21513339.1554
       726.1874
  24411342.2104    -376050.07747   -290126.48844                  24411336.0784
      1301.1474
  23225878.8234   -8312122.60746  -6471309.97844                  23225872.7714
      -579.8584
  24279671.5824    -640041.19745
      3857.1294
  24502420.3844     -50667.60646    -35885.43742                  24502415.6024
       643.8184
 06  6 27 12 55 29.9990000  0 10G 7G 1G15G16G21G19G22G23G11G13
  22981462.2204  -11839381.00347  -9085543.28745                  22981458.7074
     -1805.0494
  24045696.8964   -9095261.35846  -7080326.66143                  24045692.9354
     -2219.3904
  22187239.6284  -16688399.49647 -13000706.50145                  22187235.0704
     -1634.2244
  21634705.7434  -15940595.57647 -15332050.87246                  21634700.9854
       742.0564
  24570514.3414   -5127255.10346  -3990199.93143                  24570509.7184
     -2503.2134
  21509228.6544  -13972005.40947 -11919260.28747                  21509221.7854
       716.2064
  24403917.7474    -415064.19046   -320527.09344                  24403911.7134
      1299.9714
  23229218.0344   -8294573.65247  -6457635.49644                  23229211.5704
      -589.8544
  24257657.7374    -755717.92345
      3855.1174
  24498785.5634     -69771.07646    -50771.23842                  24498780.6744
       630.0734
 06  6 27 12 55 59.9990000  0 10G 7G 1G15G16G21G19G22G23G11G13
  22991758.2354  -11785275.87247  -9043383.45845                  22991755.2304
     -1801.9634
  24058350.6804   -9028770.88146  -7028515.95743                  24058345.2144
     -2213.2574
  22196609.6484  -16639158.87447 -12962337.16046                  22196605.9424
     -1648.5654
  21630475.2424  -15962828.43448 -15349375.18946                  21630469.6644
       740.1424
  24584826.1744   -5052045.30846  -3931594.95743                  24584821.8194
     -2510.5864
  21505168.5694  -13993341.69148 -11935885.96746                  21505162.5844
       706.2604
  24396500.7434    -454040.23646   -350898.03843                  24396494.1854
      1298.6084
  23232613.9264   -8276731.60746  -6443732.55644                  23232606.6784
      -599.4734
  24235657.7684    -871337.21246
      3852.9104
  24495227.2974     -88468.59446    -65340.77742                  24495222.8044
       616.4604
 06  6 27 12 56 29.9990000  0 10G 7G 1G15G16G21G19G22G23G11G13
  23002038.6004  -11731256.49047  -9001290.46945                  23002034.3974
     -1799.0724
  24070968.8294   -8962456.20446  -6976842.17044                  24070964.8824
     -2207.2904
  22206063.6074  -16589479.82447 -12923626.21445                  22206059.7184
     -1663.1544
  21626257.4324  -15984991.61747 -15366645.19547                  21626252.2234
       737.7494
  24599181.1984   -4976603.60845  -3872809.14842                  24599177.5664
     -2518.2424
  21501166.6184  -14014370.24047 -11952271.85446                  21501160.1294
       696.0844
  24389094.5664    -492963.28446   -381227.74043                  24389087.7814
      1296.6364
  23236066.5894   -8258586.33247  -6429593.38645                  23236059.6944
      -609.5904
  24213670.5254    -986884.63846   -592836.69942                  24213665.3904
      3850.5714
  24491749.0674    -106748.41446    -79584.75441                  24491744.3024
       602.6564
 06  6 27 12 56 59.9990000  0 10G 7G 1G15G16G21G19G22G23G11G13
  23012300.3504  -11677329.10647  -8959269.15945                  23012296.6014
     -1795.9234
  24083553.5284   -8896324.60846  -6925311.06144                  24083549.3834
     -2201.2894
  22215599.1424  -16539369.09947 -12884578.89246                  22215595.8424
     -1677.4514
  21622052.3754  -16007088.81348 -15383863.80046                  21622046.7484
       735.5574
  24613581.6804   -4900937.19045  -3813848.29143                  24613576.9374
     -2526.1034
  21497222.4534  -14035097.27548 -11968422.78247                  21497216.2424
       686.0354
  24381696.4754    -531835.86146   -411518.04643                  24381690.6084
      1295.1664
  23239575.8944   -8240145.45447  -6415223.90645                  23239570.2804
      -619.4974
  24191694.9084   -1102362.77246   -682819.60242                  24191690.0924
      3848.2474
  24488348.6144    -124616.70046    -93508.12843                  24488343.7544
       588.8234
 06  6 27 12 57 29.9990000  0 10G 7G 1G15G16G21G19G22G23G11G13
  23022542.9944  -11623503.57347  -8917327.19345                  23022539.6494
     -1792.6514
  24096100.7134   -8830387.41246  -6873931.39543                  24096097.6284
     -2194.8294
  22225214.9754  -16488837.79447 -12845203.85746                  22225210.6254
     -1691.6064
  21617858.6254  -16029127.59348 -15401036.88546                  21617853.1244
       733.4134
  24628020.4564   -4825057.51945  -3754721.30843                  24628016.7884
     -2532.9744
  21493333.6274  -14055533.44948 -11984347.06547                  21493327.2314
       676.2164
  24374307.4234    -570664.80846   -441774.35843                  24374301.4514
      1293.2674
  23243139.5094   -8221420.95647  -6400633.35145                  23243131.8254
      -629.0484
  24169731.3044   -1217778.31345   -772753.89542                  24169726.2634
      3846.0504
  24485024.2474    -142083.64746   -107118.71942                  24485018.9254
       575.4204
 06  6 27 12 57 59.9990000  0 10G 7G 1G15G16G21G19G22G23G11G13
  23032768.1354  -11569771.14347  -8875457.77745                  23032764.3484
     -1789.7274
  24108612.9064   -8764636.62046  -6822697.03043                  24108609.0494
     -2188.6624
  22234912.5514  -16437877.47147 -12805494.51145                  22234908.0044
     -1705.9334
  21613678.5224  -16051096.35548 -15418155.39846                  21613673.1974
       730.9184
  24642502.3784   -4748956.63346  -3695421.86543                  24642497.8644
     -2540.4884
  21489501.7414  -14075670.28348 -12000038.09447                  21489495.3624
       666.0794
  24366929.3534    -609437.77346   -471987.06643                  24366923.2744
      1291.3184
  23246757.1784   -8202405.19346  -6385815.87144                  23246750.9404
      -638.8284
  24147783.4874   -1333119.51845
      3843.2474
  24481778.9954    -159140.36546   -120409.65642                  24481773.7734
       561.4894
 06  6 27 12 58 29.9990000  0 10G 7G 1G15G16G21G19G22G23G11G13
  23042975.9244  -11516131.28647  -8833660.51245                  23042971.2664
     -1786.7684
  24121089.0934   -8699073.06246  -6771608.57643                  24121084.5884
     -2182.6224
  22244691.3064  -16386488.64747 -12765451.27645                  22244687.6914
     -1720.3954
  21609511.7424  -16072992.78148 -15435217.57846                  21609506.0164
       728.2964
  24657026.0194   -4672635.45246  -3635950.79344                  24657021.3454
     -2547.9104
  21485726.7804  -14095507.76448 -12015495.86546                  21485720.2804
       655.9774
  24359561.8834    -648151.15446   -502153.32843                  24359556.2274
      1289.1414
  23250431.3414   -8183099.09946  -6370772.21445                  23250424.8004
      -648.6824
  24125848.6834   -1448382.25045
      3840.4254
  24478610.2604    -175786.56346   -133380.67043                  24478605.5754
       547.7594
 06  6 27 12 58 59.9990000  0 10G 7G 1G15G16G21G19G22G23G11G13
  23053165.4204  -11462582.07047  -8791933.87845                  23053161.6424
     -1783.5214
  24133529.7494   -8633695.40646  -6720664.94043                  24133526.4404
     -2176.1284
  22254552.2984  -16334670.03547 -12725073.12746                  22254548.2344
     -1734.5414
  21605359.5764  -16094811.60048 -15452219.24846                  21605353.9924
       725.9574
  24671591.2564   -4596092.91446  -3576307.22844                  24671586.6094
     -2555.0734
  21482008.7964  -14115044.36648 -12030719.18247                  21482002.6924
       646.1474
  24352208.2574    -686799.08646   -532268.60243                  24352202.1974
      1287.0564
  23254160.7024   -8163502.33947  -6355502.01445                  23254154.0574
      -658.1054
  24103931.2444   -1563561.13546
      3837.8514
  24475521.5624    -192020.24046   -146030.21643                  24475516.2164
       534.3264
